Weather History for Mobridge, SD

Change the Weather History Date:

Monday, December 31, 2012

  Actual Average Record
Temperature  
Mean Temperature 18 °F 16 °F  
Max Temperature 23 °F 26 °F 53 °F (1953)
Min Temperature 12 °F 6 °F -27 °F (1967)
Degree Days  
Heating Degree Days 47 49  
Month to date heating degree days 1435 1449  
Since 1 July heating degree days 3182 3216  
Cooling Degree Days 0 0  
Month to date cooling degree days 0 0  
Year to date cooling degree days 866 644  
Moisture  
Dew Point 10 °F    
Average Humidity 79    
Maximum Humidity 84    
Minimum Humidity 73    
Precipitation  
Precipitation T in 0.02 in 0.35 in (1918)
Month to date precipitation 0.54 0.44  
Year to date precipitation 13.71 17.87  
Snow  
Snow T in - - ()
Month to date snowfall 8.2  
Since 1 July snowfall 8.7  
Snow Depth 2.00 in    
Sea Level Pressure  
Sea Level Pressure 30.18 in    
Wind  
Wind Speed 7 mph (East)    
Max Wind Speed 12 mph    
Max Gust Speed 14 mph    
Visibility 8 miles    
Events Snow    
T = Trace of Precipitation, MM = Missing Value Source: NWS Daily Summary

Daily Weather History Graph

Daily Weather History Graph

Search for Another Location

Airport:

Trip Planner

Search our weather history database for the weather conditions in past years. The results will help you decide how hot, cold, wet, or windy it might be!

Date:

Astronomy

Dec. 31, 2012 Rise Set
Actual Time 8:21 AM CST 5:08 PM CST
Civil Twilight 7:47 AM CST 5:42 PM CST
Nautical Twilight 7:10 AM CST 6:19 PM CST
Astronomical Twilight 6:34 AM CST 6:55 PM CST
Moon 8:51 PM CST (12/31) 9:54 AM CST (12/31)
Length of Visible Light 9h 54m
Length of Day
8h 46m
Waning Gibbous, 90% of the Moon is Illuminated
Dec 31
Waning Gibbous
Jan 4
Last Quarter
Jan 11
New
Jan 18
First Quarter
Jan 26
Full

Hourly Weather History & Observations

Time (CST) Temp. Windchill Dew Point Humidity Pressure Visibility Wind Dir Wind Speed Gust Speed Precip Events Conditions
12:52 AM 23.0 °F 15.8 °F 17.1 °F 78% 30.16 in 10.0 mi NNW 5.8 mph - N/A   Overcast
1:52 AM 19.9 °F 8.6 °F 15.1 °F 81% 30.17 in 10.0 mi NNE 10.4 mph - N/A   Overcast
2:52 AM 19.0 °F 12.3 °F 12.9 °F 77% 30.19 in 10.0 mi NNE 4.6 mph - N/A   Overcast
3:52 AM 19.0 °F 10.0 °F 12.9 °F 77% 30.20 in 10.0 mi NNE 6.9 mph - N/A   Overcast
4:52 AM 17.1 °F 7.6 °F 12.0 °F 81% 30.21 in 10.0 mi North 6.9 mph - N/A   Overcast
5:52 AM 16.0 °F 7.4 °F 10.0 °F 77% 30.21 in 10.0 mi NE 5.8 mph - N/A   Overcast
6:52 AM 15.1 °F 3.3 °F 9.0 °F 77% 30.22 in 10.0 mi NNE 9.2 mph - N/A   Overcast
7:52 AM 12.9 °F 3.8 °F 7.0 °F 77% 30.22 in 10.0 mi NNE 5.8 mph - N/A   Overcast
8:52 AM 12.9 °F 6.9 °F 6.1 °F 74% 30.24 in 10.0 mi NE 3.5 mph - N/A   Overcast
9:52 AM 12.0 °F 1.5 °F 7.0 °F 80% 30.25 in 5.0 mi East 6.9 mph - 0.00 in Snow Light Snow
10:34 AM 12.2 °F 2.9 °F 6.8 °F 79% 30.15 in 2.5 mi East 5.8 mph - 0.00 in Snow Light Snow
10:42 AM 12.2 °F 2.9 °F 6.8 °F 79% 30.15 in 3.0 mi East 5.8 mph - 0.00 in Snow Light Snow
10:52 AM 12.9 °F 2.6 °F 7.0 °F 77% 30.24 in 4.0 mi East 6.9 mph - 0.00 in Snow Light Snow
11:52 AM 12.9 °F 5.2 °F 8.1 °F 81% 30.22 in 9.0 mi ESE 4.6 mph - 0.00 in Snow Light Snow
12:52 PM 15.1 °F 6.4 °F 9.0 °F 77% 30.19 in 6.0 mi East 5.8 mph - 0.00 in Snow Light Snow
1:52 PM 16.0 °F 7.4 °F 10.0 °F 77% 30.18 in 10.0 mi East 5.8 mph - 0.00 in   Overcast
2:52 PM 16.0 °F 5.3 °F 10.0 °F 77% 30.17 in 10.0 mi East 8.1 mph - N/A   Overcast
2:59 PM 15.8 °F 6.1 °F 10.4 °F 79% 30.08 in 10.0 mi East 6.9 mph - N/A   Overcast
3:52 PM 17.1 °F 6.6 °F 10.9 °F 77% 30.18 in 10.0 mi East 8.1 mph - N/A   Overcast
4:52 PM 17.1 °F 6.6 °F 12.0 °F 81% 30.19 in 8.0 mi SE 8.1 mph - N/A   Overcast
5:52 PM 16.0 °F 5.3 °F 10.9 °F 81% 30.19 in 9.0 mi SE 8.1 mph - N/A   Overcast
6:52 PM 16.0 °F 4.4 °F 10.9 °F 81% 30.19 in 10.0 mi East 9.2 mph - 0.00 in   Overcast
7:52 PM 15.1 °F 2.5 °F 10.9 °F 84% 30.18 in 5.0 mi East 10.4 mph - 0.00 in Snow Light Snow
8:47 PM 15.8 °F 2.7 °F 10.4 °F 79% 30.06 in 6.0 mi East 11.5 mph - 0.00 in Snow Light Snow
8:52 PM 15.1 °F 1.8 °F 10.9 °F 84% 30.17 in 6.0 mi East 11.5 mph - 0.00 in Snow Light Snow
9:19 PM 15.8 °F 4.2 °F 12.2 °F 86% 30.06 in 6.0 mi ESE 9.2 mph - 0.00 in Snow Light Snow
9:52 PM 15.1 °F 5.2 °F 10.9 °F 84% 30.17 in 6.0 mi SE 6.9 mph - 0.00 in Snow Light Snow
10:52 PM 15.1 °F 7.7 °F 12.0 °F 88% 30.18 in 10.0 mi SE 4.6 mph - 0.00 in   Overcast
11:09 PM 15.8 °F 6.1 °F 12.2 °F 86% 30.08 in 10.0 mi SE 6.9 mph - N/A   Overcast
11:52 PM 17.1 °F 7.6 °F 12.9 °F 84% 30.18 in 10.0 mi SE 6.9 mph - N/A   Overcast